Location: Ocean City
(38.3360°N, 75.0850°W)
Time: 06:35:41
(UTC-05:00)

Explorer 11/Cluster Stage 4 - Pass Details

Date: 14 November 2019
Orbit: 467 x 1259 km, 28.8° (Epoch: 06 December)

Event Time Altitude Azimuth Distance (km) Brightness Sun altitude
Rises 20:48:44 0° 222° (SW) 3,562 10.2 -46.9°
Enters shadow 20:48:45 - 222° (SW) 3,555 10.2 -47.0°
Reaches altitude 10° 20:51:40 10° 209° (SSW) 2,752 - -47.5°
Maximum altitude 20:57:03 25° 157° (SSE) 2,070 - -48.5°
Drops below altitude 10° 21:03:06 10° 106° (ESE) 3,132 - -49.7°
Sets 21:06:41 0° 95° (E) 4,163 - -50.3°
